Time,TemperatureF,DewpointF,PressureIn,WindDirection,WindDirectionDegrees,WindSpeedMPH,WindSpeedGustMPH,Humidity,HourlyPrecipIn,Conditions,Clouds,dailyrainin,SoftwareType,DateUTC
2013-01-28 00:03:00,31.0,29.0,29.67,East,90,1.8,3.4,92,0.00,,,0.00,WUHU216HW,2013-01-28 06:03:00,
2013-01-28 00:08:00,31.0,29.0,29.67,East,90,2.5,2.5,92,0.00,,,0.00,WUHU216HW,2013-01-28 06:08:00,
2013-01-28 00:13:00,31.0,29.0,29.66,East,90,1.8,2.7,92,0.00,,,0.00,WUHU216HW,2013-01-28 06:13:00,
2013-01-28 00:18:00,31.0,29.0,29.66,East,90,2.0,2.9,92,0.00,,,0.00,WUHU216HW,2013-01-28 06:18:00,
2013-01-28 00:23:00,31.0,29.0,29.66,East,90,1.1,2.9,92,0.00,,,0.00,WUHU216HW,2013-01-28 06:23:00,
2013-01-28 00:28:00,31.0,29.0,29.66,East,90,1.8,2.5,92,0.00,,,0.00,WUHU216HW,2013-01-28 06:28:00,
2013-01-28 00:33:00,31.1,29.2,29.65,East,90,1.8,2.5,92,0.00,,,0.00,WUHU216HW,2013-01-28 06:33:00,
2013-01-28 00:38:00,31.0,29.0,29.66,East,90,2.5,2.7,92,0.00,,,0.00,WUHU216HW,2013-01-28 06:38:00,
2013-01-28 00:43:00,31.0,29.0,29.66,East,90,2.5,2.7,92,0.00,,,0.00,WUHU216HW,2013-01-28 06:43:00,
2013-01-28 00:48:00,31.0,29.0,29.66,East,90,1.8,3.1,92,0.00,,,0.00,WUHU216HW,2013-01-28 06:48:00,
2013-01-28 00:53:00,31.0,29.0,29.65,East,90,1.3,3.1,92,0.00,,,0.00,WUHU216HW,2013-01-28 06:53:00,
2013-01-28 00:58:00,31.0,29.0,29.65,East,90,1.8,2.5,92,0.00,,,0.00,WUHU216HW,2013-01-28 06:58:00,
2013-01-28 01:03:00,30.8,28.8,29.65,East,90,1.6,2.2,92,0.00,,,0.00,WUHU216HW,2013-01-28 07:03:00,
2013-01-28 01:08:00,31.0,29.0,29.65,East,90,0.7,2.2,92,0.00,,,0.00,WUHU216HW,2013-01-28 07:08:00,
2013-01-28 01:13:00,31.0,28.7,29.65,East,90,0.4,2.2,91,0.00,,,0.00,WUHU216HW,2013-01-28 07:13:00,
2013-01-28 01:18:00,31.0,28.7,29.66,East,90,1.3,1.6,91,0.00,,,0.00,WUHU216HW,2013-01-28 07:18:00,
2013-01-28 01:23:00,31.0,28.7,29.66,East,90,0.7,1.8,91,0.00,,,0.00,WUHU216HW,2013-01-28 07:23:00,
2013-01-28 01:28:00,31.1,28.9,29.65,East,90,0.9,1.8,91,0.00,,,0.00,WUHU216HW,2013-01-28 07:28:00,
2013-01-28 01:33:00,31.3,29.1,29.65,East,90,1.1,1.1,91,0.00,,,0.00,WUHU216HW,2013-01-28 07:33:00,
2013-01-28 01:38:00,31.3,29.1,29.65,East,90,0.7,1.1,91,0.00,,,0.00,WUHU216HW,2013-01-28 07:38:00,
2013-01-28 01:43:00,31.3,29.1,29.65,East,90,0.7,1.1,91,0.00,,,0.00,WUHU216HW,2013-01-28 07:43:00,
2013-01-28 01:48:00,31.3,29.1,29.65,East,90,0.7,1.1,91,0.00,,,0.00,WUHU216HW,2013-01-28 07:48:00,
2013-01-28 01:53:00,31.3,29.1,29.65,East,90,0.7,1.1,91,0.00,,,0.00,WUHU216HW,2013-01-28 07:53:00,
2013-01-28 01:58:00,31.3,29.1,29.65,East,90,1.1,1.1,91,0.00,,,0.00,WUHU216HW,2013-01-28 07:58:00,
2013-01-28 02:03:00,31.3,29.1,29.66,East,90,0.9,1.1,91,0.00,,,0.00,WUHU216HW,2013-01-28 08:03:00,
2013-01-28 02:08:00,31.3,29.1,29.66,East,90,0.4,1.1,91,0.00,,,0.00,WUHU216HW,2013-01-28 08:08:00,
2013-01-28 02:13:00,31.3,29.1,29.66,East,90,0.2,0.9,91,0.00,,,0.00,WUHU216HW,2013-01-28 08:13:00,
2013-01-28 02:18:00,31.3,29.1,29.65,East,90,0.7,0.9,91,0.00,,,0.00,WUHU216HW,2013-01-28 08:18:00,
2013-01-28 02:23:00,31.5,29.3,29.65,East,90,0.0,0.9,91,0.00,,,0.00,WUHU216HW,2013-01-28 08:23:00,
2013-01-28 02:28:00,31.5,29.3,29.65,East,90,0.4,0.9,91,0.00,,,0.00,WUHU216HW,2013-01-28 08:28:00,
2013-01-28 02:33:00,31.5,29.3,29.65,East,90,0.4,0.9,91,0.00,,,0.00,WUHU216HW,2013-01-28 08:33:00,
2013-01-28 02:38:00,31.5,29.3,29.65,East,90,0.0,0.9,91,0.00,,,0.00,WUHU216HW,2013-01-28 08:38:00,
2013-01-28 02:43:00,31.5,29.3,29.64,East,90,0.0,0.4,91,0.00,,,0.00,WUHU216HW,2013-01-28 08:43:00,
2013-01-28 02:48:00,31.5,29.3,29.64,East,90,0.0,0.2,91,0.00,,,0.00,WUHU216HW,2013-01-28 08:48:00,
2013-01-28 02:53:00,31.7,29.4,29.64,East,90,0.0,0.0,91,0.00,,,0.00,WUHU216HW,2013-01-28 08:53:00,
2013-01-28 02:58:00,31.7,29.4,29.64,East,90,0.0,0.0,91,0.00,,,0.00,WUHU216HW,2013-01-28 08:58:00,
2013-01-28 03:03:00,31.7,29.4,29.64,East,90,0.0,0.0,91,0.00,,,0.00,WUHU216HW,2013-01-28 09:03:00,
2013-01-28 03:08:00,31.7,29.4,29.64,East,90,0.0,0.0,91,0.00,,,0.00,WUHU216HW,2013-01-28 09:08:00,
2013-01-28 03:13:00,31.7,29.4,29.64,East,90,0.0,0.0,91,0.00,,,0.00,WUHU216HW,2013-01-28 09:13:00,
2013-01-28 03:18:00,31.7,29.4,29.64,East,90,0.7,0.9,91,0.00,,,0.00,WUHU216HW,2013-01-28 09:18:00,
2013-01-28 03:23:00,31.7,29.4,29.64,East,90,0.4,1.6,91,0.00,,,0.00,WUHU216HW,2013-01-28 09:23:00,
2013-01-28 03:28:00,31.7,29.4,29.64,East,90,0.0,1.6,91,0.00,,,0.00,WUHU216HW,2013-01-28 09:28:00,
2013-01-28 03:33:00,31.5,29.3,29.64,East,90,0.4,0.9,91,0.00,,,0.00,WUHU216HW,2013-01-28 09:33:00,
2013-01-28 03:38:00,31.5,29.3,29.65,East,90,0.4,0.7,91,0.00,,,0.00,WUHU216HW,2013-01-28 09:38:00,
2013-01-28 03:43:00,31.5,29.3,29.65,East,90,0.4,1.1,91,0.00,,,0.00,WUHU216HW,2013-01-28 09:43:00,
2013-01-28 03:48:00,31.5,29.3,29.65,East,90,0.2,1.1,91,0.00,,,0.00,WUHU216HW,2013-01-28 09:48:00,
2013-01-28 03:53:00,31.5,29.3,29.65,East,90,0.4,0.7,91,0.00,,,0.00,WUHU216HW,2013-01-28 09:53:00,
2013-01-28 03:58:00,31.3,29.1,29.65,East,90,0.4,0.7,91,0.00,,,0.00,WUHU216HW,2013-01-28 09:58:00,
2013-01-28 04:03:00,31.3,29.1,29.65,East,90,0.0,0.7,91,0.00,,,0.00,WUHU216HW,2013-01-28 10:03:00,
2013-01-28 04:08:00,31.5,29.3,29.65,East,90,0.0,0.7,91,0.00,,,0.00,WUHU216HW,2013-01-28 10:08:00,
2013-01-28 04:13:00,31.5,29.0,29.65,East,90,0.0,0.2,90,0.00,,,0.00,WUHU216HW,2013-01-28 10:13:00,
2013-01-28 04:18:00,31.5,29.3,29.65,East,90,0.0,0.4,91,0.00,,,0.00,WUHU216HW,2013-01-28 10:18:00,
2013-01-28 04:23:00,31.5,29.3,29.65,East,90,0.9,1.6,91,0.00,,,0.00,WUHU216HW,2013-01-28 10:23:00,
2013-01-28 04:28:00,31.5,29.3,29.66,East,90,1.8,1.8,91,0.00,,,0.00,WUHU216HW,2013-01-28 10:28:00,
2013-01-28 04:33:00,31.5,29.3,29.66,East,90,2.0,2.5,91,0.00,,,0.00,WUHU216HW,2013-01-28 10:33:00,
2013-01-28 04:38:00,31.3,29.1,29.66,East,90,2.7,3.1,91,0.00,,,0.00,WUHU216HW,2013-01-28 10:38:00,
2013-01-28 04:43:00,31.5,29.3,29.66,East,90,2.7,4.5,91,0.00,,,0.00,WUHU216HW,2013-01-28 10:43:00,
2013-01-28 04:48:00,31.3,29.1,29.66,East,90,4.0,4.5,91,0.00,,,0.00,WUHU216HW,2013-01-28 10:48:00,
2013-01-28 04:53:00,31.3,29.1,29.66,East,90,3.4,4.0,91,0.00,,,0.00,WUHU216HW,2013-01-28 10:53:00,
2013-01-28 04:58:00,31.3,29.1,29.66,East,90,3.8,4.0,91,0.00,,,0.00,WUHU216HW,2013-01-28 10:58:00,
2013-01-28 05:03:00,31.3,29.1,29.66,East,90,4.0,4.0,91,0.00,,,0.00,WUHU216HW,2013-01-28 11:03:00,
2013-01-28 05:08:00,31.3,29.1,29.66,East,90,2.0,4.7,91,0.00,,,0.00,WUHU216HW,2013-01-28 11:08:00,
2013-01-28 05:13:00,31.3,29.1,29.66,East,90,2.0,4.7,91,0.00,,,0.00,WUHU216HW,2013-01-28 11:13:00,
2013-01-28 05:18:00,31.3,29.1,29.66,East,90,0.4,4.0,91,0.00,,,0.00,WUHU216HW,2013-01-28 11:18:00,
2013-01-28 05:23:00,31.3,29.1,29.67,East,90,2.0,3.4,91,0.00,,,0.00,WUHU216HW,2013-01-28 11:23:00,
2013-01-28 05:28:00,31.3,29.1,29.66,East,90,4.0,4.0,91,0.00,,,0.00,WUHU216HW,2013-01-28 11:28:00,
2013-01-28 05:33:00,31.3,29.1,29.66,East,90,3.4,4.5,91,0.00,,,0.00,WUHU216HW,2013-01-28 11:33:00,
2013-01-28 05:38:00,31.5,29.3,29.67,East,90,3.4,5.1,91,0.00,,,0.00,WUHU216HW,2013-01-28 11:38:00,
2013-01-28 05:43:00,31.5,29.3,29.67,East,90,2.2,5.1,91,0.00,,,0.00,WUHU216HW,2013-01-28 11:43:00,
2013-01-28 05:48:00,31.5,29.3,29.67,East,90,3.6,6.3,91,0.00,,,0.00,WUHU216HW,2013-01-28 11:48:00,
2013-01-28 05:53:00,31.5,29.3,29.67,East,90,3.8,6.3,91,0.00,,,0.00,WUHU216HW,2013-01-28 11:53:00,
2013-01-28 05:58:00,31.7,29.7,29.68,East,90,1.3,4.9,92,0.00,,,0.00,WUHU216HW,2013-01-28 11:58:00,
2013-01-28 06:03:00,31.7,29.7,29.68,East,90,4.5,4.9,92,0.00,,,0.00,WUHU216HW,2013-01-28 12:03:00,
2013-01-28 06:08:00,31.9,29.9,29.68,East,90,4.3,4.7,92,0.00,,,0.00,WUHU216HW,2013-01-28 12:08:00,
2013-01-28 06:13:00,31.9,30.1,29.68,East,90,4.5,4.7,93,0.00,,,0.00,WUHU216HW,2013-01-28 12:13:00,
2013-01-28 06:18:00,31.9,29.9,29.69,East,90,4.9,7.6,92,0.00,,,0.00,WUHU216HW,2013-01-28 12:18:00,
2013-01-28 06:23:00,31.9,30.1,29.69,East,90,4.0,7.6,93,0.00,,,0.00,WUHU216HW,2013-01-28 12:23:00,
2013-01-28 06:28:00,31.9,30.1,29.70,East,90,6.9,7.2,93,0.00,,,0.00,WUHU216HW,2013-01-28 12:28:00,
2013-01-28 06:33:00,31.9,30.1,29.70,East,90,3.4,6.9,93,0.00,,,0.00,WUHU216HW,2013-01-28 12:33:00,
2013-01-28 06:38:00,31.9,30.1,29.70,East,90,2.9,6.9,93,0.00,,,0.00,WUHU216HW,2013-01-28 12:38:00,
2013-01-28 06:43:00,31.9,30.1,29.71,East,90,1.8,6.9,93,0.00,,,0.00,WUHU216HW,2013-01-28 12:43:00,
2013-01-28 06:48:00,31.9,30.1,29.71,East,90,3.6,5.1,93,0.00,,,0.00,WUHU216HW,2013-01-28 12:48:00,
2013-01-28 06:53:00,31.9,30.1,29.71,East,90,4.9,4.9,93,0.00,,,0.00,WUHU216HW,2013-01-28 12:53:00,
2013-01-28 06:58:00,31.9,30.1,29.71,East,90,3.8,5.4,93,0.00,,,0.00,WUHU216HW,2013-01-28 12:58:00,
2013-01-28 07:03:00,31.9,30.1,29.71,East,90,1.3,6.3,93,0.00,,,0.00,WUHU216HW,2013-01-28 13:03:00,
2013-01-28 07:08:00,31.9,30.1,29.71,East,90,2.7,6.3,93,0.00,,,0.00,WUHU216HW,2013-01-28 13:08:00,
2013-01-28 07:13:00,31.9,30.1,29.71,East,90,3.4,5.4,93,0.00,,,0.00,WUHU216HW,2013-01-28 13:13:00,
2013-01-28 07:18:00,31.9,30.1,29.72,East,90,1.8,6.9,93,0.00,,,0.00,WUHU216HW,2013-01-28 13:18:00,
2013-01-28 07:23:00,31.9,30.1,29.72,East,90,2.5,7.6,93,0.00,,,0.00,WUHU216HW,2013-01-28 13:23:00,
2013-01-28 07:28:00,31.9,29.9,29.73,East,90,2.7,7.6,92,0.00,,,0.00,WUHU216HW,2013-01-28 13:28:00,
2013-01-28 07:33:00,31.9,30.1,29.73,East,90,4.5,7.2,93,0.00,,,0.00,WUHU216HW,2013-01-28 13:33:00,
2013-01-28 07:38:00,31.9,30.1,29.73,East,90,3.4,6.3,93,0.00,,,0.00,WUHU216HW,2013-01-28 13:38:00,
2013-01-28 07:43:00,31.9,29.9,29.73,East,90,6.0,6.0,92,0.00,,,0.00,WUHU216HW,2013-01-28 13:43:00,
2013-01-28 07:48:00,31.9,29.9,29.73,East,90,2.7,7.4,92,0.00,,,0.00,WUHU216HW,2013-01-28 13:48:00,
2013-01-28 07:53:00,32.0,30.1,29.73,East,90,5.1,7.4,92,0.00,,,0.00,WUHU216HW,2013-01-28 13:53:00,
2013-01-28 07:58:00,32.0,30.1,29.73,East,90,3.4,7.2,92,0.00,,,0.00,WUHU216HW,2013-01-28 13:58:00,
2013-01-28 08:03:00,32.0,30.1,29.73,East,90,4.7,7.2,92,0.00,,,0.00,WUHU216HW,2013-01-28 14:03:00,
2013-01-28 08:08:00,32.0,30.1,29.73,East,90,3.4,6.3,92,0.00,,,0.00,WUHU216HW,2013-01-28 14:08:00,
2013-01-28 08:13:00,32.2,30.2,29.73,East,90,4.3,6.5,92,0.00,,,0.00,WUHU216HW,2013-01-28 14:13:00,
2013-01-28 08:18:00,32.2,30.2,29.74,East,90,4.5,6.5,92,0.00,,,0.00,WUHU216HW,2013-01-28 14:18:00,
2013-01-28 08:23:00,32.4,30.3,29.74,East,90,6.7,6.9,92,0.00,,,0.00,WUHU216HW,2013-01-28 14:23:00,
2013-01-28 08:28:00,32.4,30.3,29.74,East,90,5.1,6.9,92,0.00,,,0.00,WUHU216HW,2013-01-28 14:28:00,
2013-01-28 08:33:00,32.4,30.3,29.74,East,90,6.9,6.9,92,0.00,,,0.00,WUHU216HW,2013-01-28 14:33:00,
2013-01-28 08:38:00,32.4,30.3,29.73,East,90,6.3,8.1,92,0.00,,,0.00,WUHU216HW,2013-01-28 14:38:00,
2013-01-28 08:43:00,32.6,30.5,29.74,East,90,6.7,8.1,92,0.00,,,0.00,WUHU216HW,2013-01-28 14:43:00,
2013-01-28 08:48:00,32.6,30.5,29.74,East,90,6.9,6.9,92,0.00,,,0.00,WUHU216HW,2013-01-28 14:48:00,
2013-01-28 08:53:00,32.6,30.5,29.74,East,90,6.3,7.2,92,0.00,,,0.00,WUHU216HW,2013-01-28 14:53:00,
2013-01-28 08:59:00,32.8,30.7,29.74,East,90,5.4,7.2,92,0.00,,,0.00,WUHU216HW,2013-01-28 14:59:00,
2013-01-28 09:04:00,32.9,30.9,29.74,East,90,3.4,7.6,92,0.00,,,0.00,WUHU216HW,2013-01-28 15:04:00,
2013-01-28 09:09:00,33.1,31.1,29.75,East,90,3.4,7.6,92,0.00,,,0.00,WUHU216HW,2013-01-28 15:09:00,
2013-01-28 09:14:00,33.3,31.1,29.75,SW,225,6.0,7.6,92,0.00,,,0.00,WUHU216HW,2013-01-28 15:14:00,
2013-01-28 09:19:00,33.5,31.3,29.76,NW,315,4.0,7.6,92,0.00,,,0.00,WUHU216HW,2013-01-28 15:19:00,
2013-01-28 09:24:00,33.7,31.2,29.76,South,180,4.9,6.7,91,0.00,,,0.00,WUHU216HW,2013-01-28 15:24:00,
2013-01-28 09:29:00,33.8,31.4,29.75,NW,315,3.8,5.4,91,0.00,,,0.00,WUHU216HW,2013-01-28 15:29:00,
2013-01-28 09:34:00,34.0,31.3,29.76,NNW,338,3.8,6.7,90,0.00,,,0.00,WUHU216HW,2013-01-28 15:34:00,
2013-01-28 09:39:00,34.2,31.5,29.76,NW,315,4.0,6.7,90,0.00,,,0.00,WUHU216HW,2013-01-28 15:39:00,
2013-01-28 09:44:00,34.6,31.6,29.76,WNW,293,2.2,5.8,89,0.00,,,0.00,WUHU216HW,2013-01-28 15:44:00,
2013-01-28 09:49:00,34.7,31.8,29.76,SE,135,4.0,5.8,89,0.00,,,0.00,WUHU216HW,2013-01-28 15:49:00,
2013-01-28 09:54:00,34.9,32.0,29.76,WSW,248,1.6,4.5,89,0.00,,,0.00,WUHU216HW,2013-01-28 15:54:00,
2013-01-28 09:59:00,35.3,32.3,29.77,SSW,203,2.0,4.3,89,0.00,,,0.00,WUHU216HW,2013-01-28 15:59:00,
2013-01-28 10:04:00,35.5,32.2,29.77,South,180,5.8,5.8,88,0.00,,,0.00,WUHU216HW,2013-01-28 16:04:00,
2013-01-28 10:09:00,35.3,32.1,29.77,South,180,1.1,5.8,88,0.00,,,0.00,WUHU216HW,2013-01-28 16:09:00,
2013-01-28 10:14:00,35.5,32.2,29.78,SSW,203,1.8,5.8,88,0.00,,,0.00,WUHU216HW,2013-01-28 16:14:00,
2013-01-28 10:19:00,35.6,32.0,29.78,SSW,203,0.4,3.4,87,0.00,,,0.00,WUHU216HW,2013-01-28 16:19:00,
2013-01-28 10:24:00,35.8,32.2,29.79,SSW,203,1.3,3.4,87,0.00,,,0.00,WUHU216HW,2013-01-28 16:24:00,
2013-01-28 10:29:00,36.0,32.4,29.79,SSW,203,1.8,3.4,87,0.00,,,0.00,WUHU216HW,2013-01-28 16:29:00,
2013-01-28 10:34:00,36.2,32.6,29.79,SSW,203,0.4,5.1,87,0.00,,,0.00,WUHU216HW,2013-01-28 16:34:00,
2013-01-28 10:39:00,36.4,32.8,29.79,SSW,203,0.4,5.1,87,0.00,,,0.00,WUHU216HW,2013-01-28 16:39:00,
2013-01-28 10:44:00,36.4,32.8,29.79,SSW,203,0.0,1.8,87,0.00,,,0.00,WUHU216HW,2013-01-28 16:44:00,
2013-01-28 10:49:00,36.5,32.9,29.79,SSW,203,1.8,2.2,87,0.00,,,0.00,WUHU216HW,2013-01-28 16:49:00,
2013-01-28 10:54:00,36.7,33.1,29.79,SSW,203,2.5,2.9,87,0.00,,,0.00,WUHU216HW,2013-01-28 16:54:00,
2013-01-28 10:59:00,36.7,33.1,29.79,South,180,1.1,2.9,87,0.00,,,0.00,WUHU216HW,2013-01-28 16:59:00,
2013-01-28 11:04:00,36.7,32.9,29.79,West,270,0.2,2.5,86,0.00,,,0.00,WUHU216HW,2013-01-28 17:04:00,
2013-01-28 11:09:00,36.4,32.2,29.79,NW,315,0.7,2.2,85,0.00,,,0.00,WUHU216HW,2013-01-28 17:09:00,
2013-01-28 11:14:00,36.0,32.1,29.79,South,180,1.6,2.9,86,0.00,,,0.00,WUHU216HW,2013-01-28 17:14:00,
2013-01-28 11:19:00,36.4,32.5,29.79,South,180,0.0,2.9,86,0.00,,,0.00,WUHU216HW,2013-01-28 17:19:00,
2013-01-28 11:24:00,36.5,32.7,29.79,South,180,0.0,1.6,86,0.00,,,0.00,WUHU216HW,2013-01-28 17:24:00,
2013-01-28 11:29:00,36.9,33.0,29.78,South,180,0.0,0.0,86,0.00,,,0.00,WUHU216HW,2013-01-28 17:29:00,
2013-01-28 11:34:00,36.9,32.8,29.78,South,180,2.7,4.7,85,0.00,,,0.00,WUHU216HW,2013-01-28 17:34:00,
2013-01-28 11:39:00,36.7,32.6,29.78,SSE,158,0.7,4.7,85,0.00,,,0.00,WUHU216HW,2013-01-28 17:39:00,
2013-01-28 11:44:00,36.9,32.8,29.77,SSW,203,0.4,2.9,85,0.00,,,0.00,WUHU216HW,2013-01-28 17:44:00,
2013-01-28 11:49:00,36.9,32.8,29.77,South,180,0.7,2.7,85,0.00,,,0.00,WUHU216HW,2013-01-28 17:49:00,
2013-01-28 11:54:00,36.9,32.8,29.77,South,180,1.6,2.9,85,0.00,,,0.00,WUHU216HW,2013-01-28 17:54:00,
2013-01-28 11:59:00,37.1,32.7,29.77,NW,315,2.9,3.6,84,0.00,,,0.00,WUHU216HW,2013-01-28 17:59:00,
2013-01-28 12:04:00,37.3,32.9,29.77,SW,225,1.6,3.6,84,0.00,,,0.00,WUHU216HW,2013-01-28 18:04:00,
2013-01-28 12:09:00,37.4,33.0,29.77,SSW,203,1.1,2.9,84,0.00,,,0.00,WUHU216HW,2013-01-28 18:09:00,
2013-01-28 12:14:00,37.4,33.0,29.76,NW,315,2.5,2.9,84,0.00,,,0.00,WUHU216HW,2013-01-28 18:14:00,
2013-01-28 12:19:00,37.1,32.7,29.76,ENE,68,0.7,3.4,84,0.00,,,0.00,WUHU216HW,2013-01-28 18:19:00,
2013-01-28 12:24:00,37.1,32.7,29.76,NNW,338,0.7,3.4,84,0.00,,,0.00,WUHU216HW,2013-01-28 18:24:00,
2013-01-28 12:29:00,37.3,32.9,29.76,NNW,338,0.4,2.0,84,0.00,,,0.00,WUHU216HW,2013-01-28 18:29:00,
2013-01-28 12:34:00,37.3,32.9,29.76,North,0,0.0,1.3,84,0.00,,,0.00,WUHU216HW,2013-01-28 18:34:00,
2013-01-28 12:39:00,37.4,33.0,29.76,NNW,338,2.2,2.9,84,0.00,,,0.00,WUHU216HW,2013-01-28 18:39:00,
2013-01-28 12:44:00,37.6,33.2,29.76,NNW,338,1.6,2.9,84,0.00,,,0.00,WUHU216HW,2013-01-28 18:44:00,
2013-01-28 12:49:00,37.4,33.0,29.76,NNW,338,0.0,2.7,84,0.00,,,0.00,WUHU216HW,2013-01-28 18:49:00,
2013-01-28 12:54:00,37.6,33.0,29.77,SSW,203,2.0,2.9,83,0.00,,,0.00,WUHU216HW,2013-01-28 18:54:00,
2013-01-28 12:59:00,37.6,33.0,29.76,SSW,203,0.7,2.9,83,0.00,,,0.00,WUHU216HW,2013-01-28 18:59:00,
2013-01-28 13:04:00,37.6,33.0,29.76,SSW,203,0.0,2.5,83,0.00,,,0.00,WUHU216HW,2013-01-28 19:04:00,
2013-01-28 13:09:00,37.8,33.1,29.76,SSW,203,0.2,0.4,83,0.00,,,0.00,WUHU216HW,2013-01-28 19:09:00,
2013-01-28 13:14:00,37.8,33.1,29.76,ESE,113,1.1,1.1,83,0.00,,,0.00,WUHU216HW,2013-01-28 19:14:00,
2013-01-28 13:19:00,38.0,32.9,29.76,ESE,113,1.6,1.6,82,0.00,,,0.00,WUHU216HW,2013-01-28 19:19:00,
2013-01-28 13:24:00,37.6,32.6,29.76,ESE,113,2.0,2.0,82,0.00,,,0.00,WUHU216HW,2013-01-28 19:24:00,
2013-01-28 13:29:00,37.3,32.2,29.76,ESE,113,1.1,2.2,82,0.00,,,0.00,WUHU216HW,2013-01-28 19:29:00,
2013-01-28 13:34:00,37.1,32.0,29.76,NNW,338,0.0,2.2,82,0.00,,,0.00,WUHU216HW,2013-01-28 19:34:00,
2013-01-28 13:39:00,37.1,32.0,29.76,ESE,113,0.9,2.9,82,0.00,,,0.00,WUHU216HW,2013-01-28 19:39:00,
2013-01-28 13:44:00,37.1,32.4,29.76,ESE,113,0.4,2.9,83,0.00,,,0.00,WUHU216HW,2013-01-28 19:44:00,
2013-01-28 13:49:00,37.1,32.0,29.76,ESE,113,1.6,2.5,82,0.00,,,0.00,WUHU216HW,2013-01-28 19:49:00,
2013-01-28 13:54:00,36.4,31.7,29.75,SE,135,0.2,2.5,83,0.00,,,0.00,WUHU216HW,2013-01-28 19:54:00,
2013-01-28 13:59:00,35.8,31.2,29.75,ESE,113,1.6,2.5,83,0.00,,,0.00,WUHU216HW,2013-01-28 19:59:00,
2013-01-28 14:04:00,35.6,31.2,29.76,ESE,113,0.4,2.7,84,0.00,,,0.00,WUHU216HW,2013-01-28 20:04:00,
2013-01-28 14:09:00,36.0,31.6,29.76,ESE,113,1.1,2.7,84,0.00,,,0.00,WUHU216HW,2013-01-28 20:09:00,
2013-01-28 14:14:00,35.8,31.4,29.76,SE,135,0.4,2.5,84,0.00,,,0.00,WUHU216HW,2013-01-28 20:14:00,
2013-01-28 14:19:00,36.0,31.6,29.75,ESE,113,0.4,2.2,84,0.00,,,0.00,WUHU216HW,2013-01-28 20:19:00,
2013-01-28 14:24:00,36.2,31.8,29.75,ESE,113,0.4,1.6,84,0.00,,,0.00,WUHU216HW,2013-01-28 20:24:00,
2013-01-28 14:29:00,36.4,32.0,29.76,ESE,113,0.0,1.6,84,0.00,,,0.00,WUHU216HW,2013-01-28 20:29:00,
2013-01-28 14:34:00,36.2,31.8,29.76,ESE,113,1.8,2.5,84,0.00,,,0.00,WUHU216HW,2013-01-28 20:34:00,
2013-01-28 14:39:00,35.6,31.2,29.76,ESE,113,0.4,2.5,84,0.00,,,0.00,WUHU216HW,2013-01-28 20:39:00,
2013-01-28 14:44:00,35.6,31.2,29.76,ESE,113,0.4,2.9,84,0.00,,,0.00,WUHU216HW,2013-01-28 20:44:00,
2013-01-28 14:49:00,35.6,31.2,29.76,ESE,113,1.8,2.9,84,0.00,,,0.00,WUHU216HW,2013-01-28 20:49:00,
2013-01-28 14:54:00,35.8,31.7,29.76,ESE,113,3.4,3.8,85,0.00,,,0.00,WUHU216HW,2013-01-28 20:54:00,
2013-01-28 14:59:00,35.8,31.7,29.76,ESE,113,2.5,3.8,85,0.00,,,0.00,WUHU216HW,2013-01-28 20:59:00,
2013-01-28 15:04:00,35.5,31.3,29.77,East,90,2.7,3.8,85,0.00,,,0.00,WUHU216HW,2013-01-28 21:04:00,
2013-01-28 15:09:00,35.3,31.1,29.77,ESE,113,1.8,3.4,85,0.00,,,0.00,WUHU216HW,2013-01-28 21:09:00,
2013-01-28 15:14:00,35.1,31.0,29.76,ESE,113,2.5,3.4,85,0.00,,,0.00,WUHU216HW,2013-01-28 21:14:00,
2013-01-28 15:19:00,35.1,31.2,29.76,East,90,3.1,3.4,86,0.00,,,0.00,WUHU216HW,2013-01-28 21:19:00,
2013-01-28 15:24:00,35.1,31.2,29.77,ESE,113,3.1,3.4,86,0.00,,,0.00,WUHU216HW,2013-01-28 21:24:00,
2013-01-28 15:29:00,35.1,31.2,29.77,ESE,113,3.4,4.0,86,0.00,,,0.00,WUHU216HW,2013-01-28 21:29:00,
2013-01-28 15:34:00,34.9,31.1,29.77,East,90,5.1,7.6,86,0.00,,,0.00,WUHU216HW,2013-01-28 21:34:00,
2013-01-28 15:39:00,34.9,31.1,29.77,ESE,113,4.0,7.6,86,0.00,,,0.00,WUHU216HW,2013-01-28 21:39:00,
2013-01-28 15:44:00,34.9,31.1,29.77,ESE,113,3.4,6.0,86,0.00,,,0.00,WUHU216HW,2013-01-28 21:44:00,
2013-01-28 15:49:00,34.9,31.1,29.78,ESE,113,3.6,5.4,86,0.00,,,0.00,WUHU216HW,2013-01-28 21:49:00,
2013-01-28 15:54:00,34.7,30.9,29.78,ESE,113,3.4,5.4,86,0.00,,,0.00,WUHU216HW,2013-01-28 21:54:00,
2013-01-28 15:59:00,34.6,30.7,29.78,East,90,2.7,5.6,86,0.00,,,0.00,WUHU216HW,2013-01-28 21:59:00,
2013-01-28 16:04:00,34.2,30.6,29.77,East,90,3.1,5.6,87,0.00,,,0.00,WUHU216HW,2013-01-28 22:04:00,
2013-01-28 16:09:00,34.2,30.6,29.78,East,90,3.8,5.4,87,0.00,,,0.00,WUHU216HW,2013-01-28 22:09:00,
2013-01-28 16:14:00,34.2,30.6,29.78,ESE,113,4.7,5.4,87,0.00,,,0.00,WUHU216HW,2013-01-28 22:14:00,
2013-01-28 16:19:00,34.0,30.8,29.78,ESE,113,5.8,7.4,88,0.00,,,0.00,WUHU216HW,2013-01-28 22:19:00,
2013-01-28 16:24:00,34.2,31.0,29.78,ESE,113,4.9,7.4,88,0.00,,,0.00,WUHU216HW,2013-01-28 22:24:00,
2013-01-28 16:29:00,34.0,30.8,29.78,East,90,4.5,6.3,88,0.00,,,0.00,WUHU216HW,2013-01-28 22:29:00,
2013-01-28 16:34:00,34.0,30.8,29.77,ESE,113,2.9,6.3,88,0.00,,,0.00,WUHU216HW,2013-01-28 22:34:00,
2013-01-28 16:39:00,34.0,30.8,29.77,ESE,113,2.5,5.4,88,0.00,,,0.00,WUHU216HW,2013-01-28 22:39:00,
2013-01-28 16:44:00,34.0,30.8,29.77,ESE,113,3.4,5.6,88,0.00,,,0.00,WUHU216HW,2013-01-28 22:44:00,
2013-01-28 16:49:00,33.8,30.6,29.76,ESE,113,4.3,5.6,88,0.00,,,0.00,WUHU216HW,2013-01-28 22:49:00,
2013-01-28 16:54:00,33.8,30.6,29.77,ESE,113,2.7,5.4,88,0.00,,,0.00,WUHU216HW,2013-01-28 22:54:00,
2013-01-28 16:59:00,33.7,30.4,29.76,ESE,113,2.7,5.4,88,0.00,,,0.00,WUHU216HW,2013-01-28 22:59:00,
2013-01-28 17:04:00,33.7,30.7,29.77,East,90,3.4,4.7,89,0.00,,,0.00,WUHU216HW,2013-01-28 23:04:00,
2013-01-28 17:09:00,33.5,30.5,29.76,ESE,113,4.0,4.0,89,0.00,,,0.00,WUHU216HW,2013-01-28 23:09:00,
2013-01-28 17:14:00,33.5,30.5,29.76,ESE,113,6.7,6.7,89,0.00,,,0.00,WUHU216HW,2013-01-28 23:14:00,
2013-01-28 17:19:00,33.5,30.5,29.76,ESE,113,3.4,6.9,89,0.00,,,0.00,WUHU216HW,2013-01-28 23:19:00,
2013-01-28 17:24:00,33.3,30.3,29.76,ESE,113,5.4,7.4,89,0.00,,,0.00,WUHU216HW,2013-01-28 23:24:00,
2013-01-28 17:29:00,33.3,30.3,29.76,ESE,113,4.9,7.8,89,0.00,,,0.00,WUHU216HW,2013-01-28 23:29:00,
2013-01-28 17:34:00,33.3,30.3,29.76,ESE,113,4.7,7.8,89,0.00,,,0.00,WUHU216HW,2013-01-28 23:34:00,
2013-01-28 17:39:00,33.1,30.3,29.76,East,90,3.6,7.8,89,0.00,,,0.00,WUHU216HW,2013-01-28 23:39:00,
2013-01-28 17:44:00,33.1,30.5,29.76,ESE,113,4.0,7.8,90,0.00,,,0.00,WUHU216HW,2013-01-28 23:44:00,
2013-01-28 17:49:00,33.1,30.5,29.76,East,90,5.4,7.2,90,0.00,,,0.00,WUHU216HW,2013-01-28 23:49:00,
2013-01-28 17:54:00,33.1,30.5,29.76,ESE,113,3.8,7.2,90,0.00,,,0.00,WUHU216HW,2013-01-28 23:54:00,
2013-01-28 17:59:00,33.1,30.3,29.76,ESE,113,2.9,5.4,89,0.00,,,0.00,WUHU216HW,2013-01-28 23:59:00,
2013-01-28 18:04:00,33.1,30.5,29.76,East,90,3.8,4.9,90,0.00,,,0.00,WUHU216HW,2013-01-29 00:04:00,
2013-01-28 18:09:00,32.9,30.6,29.76,East,90,3.4,4.7,91,0.00,,,0.00,WUHU216HW,2013-01-29 00:09:00,
2013-01-28 18:14:00,32.9,30.6,29.75,East,90,3.8,4.7,91,0.00,,,0.00,WUHU216HW,2013-01-29 00:14:00,
2013-01-28 18:19:00,32.8,30.7,29.74,East,90,4.0,4.3,92,0.00,,,0.00,WUHU216HW,2013-01-29 00:19:00,
2013-01-28 18:24:00,32.8,30.7,29.73,ESE,113,3.6,4.7,92,0.00,,,0.00,WUHU216HW,2013-01-29 00:24:00,
2013-01-28 18:29:00,32.8,30.7,29.73,ESE,113,3.4,6.0,92,0.00,,,0.00,WUHU216HW,2013-01-29 00:29:00,
2013-01-28 18:34:00,32.8,30.4,29.74,ESE,113,5.4,6.7,91,0.00,,,0.00,WUHU216HW,2013-01-29 00:34:00,
2013-01-28 18:39:00,32.8,30.7,29.75,East,90,6.5,8.9,92,0.00,,,0.00,WUHU216HW,2013-01-29 00:39:00,
2013-01-28 18:44:00,32.8,30.7,29.74,ESE,113,3.4,8.9,92,0.00,,,0.00,WUHU216HW,2013-01-29 00:44:00,
2013-01-28 18:49:00,32.8,30.7,29.75,East,90,5.8,8.7,92,0.00,,,0.00,WUHU216HW,2013-01-29 00:49:00,
2013-01-28 18:54:00,32.8,30.7,29.75,ESE,113,6.0,9.4,92,0.00,,,0.00,WUHU216HW,2013-01-29 00:54:00,
2013-01-28 18:59:00,32.8,30.7,29.74,East,90,8.3,9.4,92,0.00,,,0.00,WUHU216HW,2013-01-29 00:59:00,
2013-01-28 19:04:00,32.8,30.7,29.74,SE,135,4.9,9.2,92,0.00,,,0.00,WUHU216HW,2013-01-29 01:04:00,
2013-01-28 19:09:00,32.8,30.7,29.74,East,90,7.8,9.2,92,0.00,,,0.00,WUHU216HW,2013-01-29 01:09:00,
2013-01-28 19:14:00,32.8,30.7,29.74,ESE,113,6.3,8.1,92,0.00,,,0.00,WUHU216HW,2013-01-29 01:14:00,
2013-01-28 19:19:00,32.8,30.7,29.74,ESE,113,4.0,8.1,92,0.00,,,0.00,WUHU216HW,2013-01-29 01:19:00,
2013-01-28 19:24:00,32.8,30.7,29.73,East,90,3.8,6.3,92,0.00,,,0.00,WUHU216HW,2013-01-29 01:24:00,
2013-01-28 19:29:00,32.8,30.7,29.73,ESE,113,3.8,6.3,92,0.00,,,0.00,WUHU216HW,2013-01-29 01:29:00,
2013-01-28 19:34:00,32.8,30.7,29.73,ESE,113,7.2,7.2,92,0.00,,,0.00,WUHU216HW,2013-01-29 01:34:00,
2013-01-28 19:39:00,32.6,30.5,29.73,East,90,6.0,7.2,92,0.00,,,0.00,WUHU216HW,2013-01-29 01:39:00,
2013-01-28 19:44:00,32.4,30.3,29.73,East,90,5.1,6.3,92,0.00,,,0.00,WUHU216HW,2013-01-29 01:44:00,
2013-01-28 19:49:00,32.4,30.3,29.73,ESE,113,4.9,6.7,92,0.00,,,0.00,WUHU216HW,2013-01-29 01:49:00,
2013-01-28 19:54:00,32.4,30.3,29.73,ESE,113,6.3,6.9,92,0.00,,,0.00,WUHU216HW,2013-01-29 01:54:00,
2013-01-28 19:59:00,32.2,30.2,29.73,ESE,113,6.3,6.9,92,0.00,,,0.00,WUHU216HW,2013-01-29 01:59:00,
2013-01-28 20:04:00,32.2,30.2,29.73,East,90,4.3,6.5,92,0.00,,,0.00,WUHU216HW,2013-01-29 02:04:00,
2013-01-28 20:09:00,32.0,30.1,29.73,ESE,113,6.3,6.5,92,0.00,,,0.00,WUHU216HW,2013-01-29 02:09:00,
2013-01-28 20:14:00,32.0,29.8,29.73,ESE,113,8.1,8.1,91,0.00,,,0.00,WUHU216HW,2013-01-29 02:14:00,
2013-01-28 20:19:00,31.9,29.6,29.72,East,90,5.1,8.1,91,0.00,,,0.00,WUHU216HW,2013-01-29 02:19:00,
2013-01-28 20:24:00,31.9,29.6,29.71,ESE,113,6.3,8.1,91,0.00,,,0.00,WUHU216HW,2013-01-29 02:24:00,
2013-01-28 20:29:00,31.7,29.4,29.72,ESE,113,4.3,8.3,91,0.00,,,0.00,WUHU216HW,2013-01-29 02:29:00,
2013-01-28 20:34:00,31.7,29.4,29.72,ESE,113,6.9,8.3,91,0.00,,,0.00,WUHU216HW,2013-01-29 02:34:00,
2013-01-28 20:39:00,31.5,29.5,29.71,ESE,113,5.4,8.3,92,0.00,,,0.00,WUHU216HW,2013-01-29 02:39:00,
2013-01-28 20:44:00,31.5,29.5,29.71,ESE,113,4.3,7.2,92,0.00,,,0.00,WUHU216HW,2013-01-29 02:44:00,
2013-01-28 20:49:00,31.3,29.4,29.71,ESE,113,4.3,7.2,92,0.00,,,0.00,WUHU216HW,2013-01-29 02:49:00,
2013-01-28 20:54:00,31.3,29.4,29.71,East,90,5.1,6.9,92,0.00,,,0.00,WUHU216HW,2013-01-29 02:54:00,
2013-01-28 20:59:00,31.3,29.4,29.71,ESE,113,3.8,6.5,92,0.00,,,0.00,WUHU216HW,2013-01-29 02:59:00,
2013-01-28 21:04:00,31.3,29.4,29.70,ESE,113,3.8,6.9,92,0.00,,,0.00,WUHU216HW,2013-01-29 03:04:00,
2013-01-28 21:09:00,31.5,29.5,29.69,East,90,4.0,6.9,92,0.00,,,0.00,WUHU216HW,2013-01-29 03:09:00,
2013-01-28 21:14:00,31.5,29.5,29.69,ESE,113,4.3,4.9,92,0.00,,,0.00,WUHU216HW,2013-01-29 03:14:00,
2013-01-28 21:19:00,31.7,29.9,29.69,ESE,113,4.0,4.9,93,0.00,,,0.00,WUHU216HW,2013-01-29 03:19:00,
2013-01-28 21:24:00,31.7,29.9,29.69,ESE,113,3.6,4.9,93,0.00,,,0.00,WUHU216HW,2013-01-29 03:24:00,
2013-01-28 21:29:00,31.7,29.9,29.68,ESE,113,4.7,4.9,93,0.00,,,0.00,WUHU216HW,2013-01-29 03:29:00,
2013-01-28 21:34:00,31.9,29.9,29.68,East,90,3.8,5.4,92,0.00,,,0.00,WUHU216HW,2013-01-29 03:34:00,
2013-01-28 21:39:00,31.9,30.1,29.67,East,90,3.8,5.6,93,0.00,,,0.00,WUHU216HW,2013-01-29 03:39:00,
2013-01-28 21:44:00,31.9,29.9,29.67,ESE,113,4.7,5.6,92,0.00,,,0.00,WUHU216HW,2013-01-29 03:44:00,
2013-01-28 21:49:00,31.9,29.9,29.67,ESE,113,7.6,8.7,92,0.00,,,0.00,WUHU216HW,2013-01-29 03:49:00,
2013-01-28 21:54:00,31.9,29.9,29.67,East,90,5.1,8.7,92,0.00,,,0.00,WUHU216HW,2013-01-29 03:54:00,
2013-01-28 21:59:00,31.9,29.9,29.67,ESE,113,5.4,6.7,92,0.00,,,0.00,WUHU216HW,2013-01-29 03:59:00,
2013-01-28 22:04:00,32.0,30.1,29.66,East,90,4.3,7.2,92,0.00,,,0.00,WUHU216HW,2013-01-29 04:04:00,
2013-01-28 22:09:00,32.0,30.1,29.66,ESE,113,4.0,7.2,92,0.00,,,0.00,WUHU216HW,2013-01-29 04:09:00,
2013-01-28 22:14:00,32.0,30.2,29.65,East,90,4.7,6.3,93,0.00,,,0.00,WUHU216HW,2013-01-29 04:14:00,
2013-01-28 22:19:00,32.0,30.2,29.64,ESE,113,6.7,6.7,93,0.00,,,0.00,WUHU216HW,2013-01-29 04:19:00,
2013-01-28 22:24:00,32.0,30.2,29.63,ESE,113,5.1,6.7,93,0.00,,,0.00,WUHU216HW,2013-01-29 04:24:00,
2013-01-28 22:29:00,32.0,30.1,29.63,ESE,113,6.9,7.2,92,0.00,,,0.00,WUHU216HW,2013-01-29 04:29:00,
2013-01-28 22:34:00,32.0,30.1,29.63,East,90,6.9,7.8,92,0.00,,,0.00,WUHU216HW,2013-01-29 04:34:00,
2013-01-28 22:39:00,32.0,30.1,29.62,ESE,113,6.3,7.8,92,0.00,,,0.00,WUHU216HW,2013-01-29 04:39:00,
2013-01-28 22:44:00,32.0,30.2,29.61,East,90,7.8,7.8,93,0.00,,,0.00,WUHU216HW,2013-01-29 04:44:00,
2013-01-28 22:49:00,32.0,30.2,29.61,ESE,113,4.9,9.8,93,0.00,,,0.00,WUHU216HW,2013-01-29 04:49:00,
2013-01-28 22:54:00,32.0,30.2,29.61,East,90,5.6,9.8,93,0.00,,,0.00,WUHU216HW,2013-01-29 04:54:00,
2013-01-28 22:59:00,32.0,30.2,29.61,ESE,113,6.3,8.5,93,0.00,,,0.00,WUHU216HW,2013-01-29 04:59:00,
2013-01-28 23:00:00,32.0,30.2,29.61,ESE,113,7.6,9.2,93,0.00,,,0.00,WUHU216HW,2013-01-29 05:00:00,
2013-01-28 23:03:00,32.0,30.2,29.60,ESE,113,5.4,9.2,93,0.00,,,0.00,WUHU216HW,2013-01-29 05:03:00,
2013-01-28 23:08:00,32.2,30.4,29.60,ESE,113,6.7,9.2,93,0.00,,,0.00,WUHU216HW,2013-01-29 05:08:00,
2013-01-28 23:13:00,32.2,30.4,29.60,ESE,113,5.4,7.2,93,0.00,,,0.00,WUHU216HW,2013-01-29 05:13:00,
2013-01-28 23:18:00,32.2,30.2,29.60,ESE,113,6.9,7.6,92,0.00,,,0.00,WUHU216HW,2013-01-29 05:18:00,
2013-01-28 23:23:00,32.2,30.2,29.59,ESE,113,7.4,7.6,92,0.00,,,0.00,WUHU216HW,2013-01-29 05:23:00,
2013-01-28 23:28:00,32.4,30.3,29.58,East,90,6.9,9.2,92,0.00,,,0.00,WUHU216HW,2013-01-29 05:28:00,
2013-01-28 23:33:00,32.4,30.3,29.58,ESE,113,6.5,9.2,92,0.00,,,0.00,WUHU216HW,2013-01-29 05:33:00,
2013-01-28 23:38:00,32.4,30.3,29.58,East,90,4.0,6.9,92,0.00,,,0.00,WUHU216HW,2013-01-29 05:38:00,
2013-01-28 23:43:00,32.4,30.6,29.57,ESE,113,5.4,6.9,93,0.00,,,0.00,WUHU216HW,2013-01-29 05:43:00,
2013-01-28 23:48:00,32.6,30.5,29.57,East,90,7.2,7.8,92,0.00,,,0.00,WUHU216HW,2013-01-29 05:48:00,
2013-01-28 23:53:00,32.6,30.5,29.57,East,90,6.3,9.2,92,0.00,,,0.00,WUHU216HW,2013-01-29 05:53:00,
2013-01-28 23:58:00,32.8,31.0,29.56,East,90,6.7,9.2,93,0.00,,,0.00,WUHU216HW,2013-01-29 05:58:00,